User: anonymous   Login
Location: Unspecified
(0.0000°N, 0.0000°E)
Time: 18:21:34
(UTC+00:00)
Language:

STARLINK-33573 - Orbit

View from above orbital plane
View from above orbital plane
View from above satellite
View from above satellite

Ground track
Ground track

The orbit is defined by the following mean orbital elements,

1 62778U          26144.77368654 +.00000000 +00000-0 +44607-3 0 00000
2 62778  53.1621 328.7852 0001048  93.8860 266.2261 15.30205111    06
Epoch (UTC): 24 May 2026 18:34:06
Eccentricity: 0.0001048
inclination: 53.1621°
perigee height: 474 km
apogee height: 476 km
right ascension of ascending node: 328.7852°
argument of perigee: 93.8860°
revolutions per day: 15.30205111
mean anomaly at epoch: 266.2261°

The dashed part of the orbit path shows where the satellite is in the earth's shadow,  

DLR